Year,Month,Day,Hour,Minute,Value (Times are PST for temperature in C)
2008,07,24,00,00,12.30
2008,07,24,00,01,12.20
2008,07,24,00,02,12.20
2008,07,24,00,03,12.20
2008,07,24,00,04,12.20
2008,07,24,00,05,12.10
2008,07,24,00,06,12.10
2008,07,24,00,07,12.10
2008,07,24,00,08,12.10
2008,07,24,00,09,12.10
2008,07,24,00,10,12.10
2008,07,24,00,11,12.10
2008,07,24,00,12,12.10
2008,07,24,00,13,12.10
2008,07,24,00,14,12.10
2008,07,24,00,15,12.00
2008,07,24,00,16,12.00
2008,07,24,00,17,12.00
2008,07,24,00,18,11.90
2008,07,24,00,19,11.90
2008,07,24,00,20,11.90
2008,07,24,00,21,11.90
2008,07,24,00,22,11.90
2008,07,24,00,23,11.80
2008,07,24,00,24,11.80
2008,07,24,00,25,11.80
2008,07,24,00,26,11.80
2008,07,24,00,27,11.80
2008,07,24,00,28,11.80
2008,07,24,00,29,11.80
2008,07,24,00,30,11.80
2008,07,24,00,31,11.80
2008,07,24,00,32,11.80
2008,07,24,00,33,11.80
2008,07,24,00,34,11.80
2008,07,24,00,35,11.80
2008,07,24,00,36,11.80
2008,07,24,00,37,11.80
2008,07,24,00,38,11.70
2008,07,24,00,39,11.70
2008,07,24,00,40,11.70
2008,07,24,00,41,11.70
2008,07,24,00,42,11.60
2008,07,24,00,43,11.60
2008,07,24,00,44,11.60
2008,07,24,00,45,11.60
2008,07,24,00,46,11.60
2008,07,24,00,47,11.60
2008,07,24,00,48,11.60
2008,07,24,00,49,11.60
2008,07,24,00,50,11.60
2008,07,24,00,51,11.60
2008,07,24,00,52,11.60
2008,07,24,00,53,11.60
2008,07,24,00,54,11.50
2008,07,24,00,55,11.40
2008,07,24,00,56,11.40
2008,07,24,00,57,11.40
2008,07,24,00,58,11.40
2008,07,24,00,59,11.40
2008,07,24,01,00,11.40
2008,07,24,01,01,11.40
2008,07,24,01,02,11.30
2008,07,24,01,03,11.30
2008,07,24,01,04,11.30
2008,07,24,01,05,11.30
2008,07,24,01,06,11.30
2008,07,24,01,07,11.30
2008,07,24,01,08,11.30
2008,07,24,01,09,11.30
2008,07,24,01,10,11.30
2008,07,24,01,11,11.30
2008,07,24,01,12,11.30
2008,07,24,01,13,11.30
2008,07,24,01,14,11.30
2008,07,24,01,15,11.30
2008,07,24,01,16,11.20
2008,07,24,01,17,11.20
2008,07,24,01,18,11.20
2008,07,24,01,19,11.20
2008,07,24,01,20,11.20
2008,07,24,01,21,11.20
2008,07,24,01,22,11.10
2008,07,24,01,23,11.10
2008,07,24,01,24,11.10
2008,07,24,01,25,11.10
2008,07,24,01,26,11.00
2008,07,24,01,27,10.90
2008,07,24,01,28,10.90
2008,07,24,01,29,10.90
2008,07,24,01,30,10.90
2008,07,24,01,31,10.90
2008,07,24,01,32,10.80
2008,07,24,01,33,10.80
2008,07,24,01,34,10.80
2008,07,24,01,35,10.80
2008,07,24,01,36,10.80
2008,07,24,01,37,10.80
2008,07,24,01,38,10.80
2008,07,24,01,39,10.80
2008,07,24,01,40,10.80
2008,07,24,01,41,10.70
2008,07,24,01,42,10.70
2008,07,24,01,43,10.70
2008,07,24,01,44,10.70
2008,07,24,01,45,10.70
2008,07,24,01,46,10.70
2008,07,24,01,47,10.70
2008,07,24,01,48,10.70
2008,07,24,01,49,10.70
2008,07,24,01,50,10.70
2008,07,24,01,51,10.60
2008,07,24,01,52,10.60
2008,07,24,01,53,10.60
2008,07,24,01,54,10.60
2008,07,24,01,55,10.60
2008,07,24,01,56,10.60
2008,07,24,01,57,10.60
2008,07,24,01,58,10.60
2008,07,24,01,59,10.60
2008,07,24,02,00,10.60
2008,07,24,02,01,10.60
2008,07,24,02,02,10.60
2008,07,24,02,03,10.60
2008,07,24,02,04,10.60
2008,07,24,02,05,10.60
2008,07,24,02,06,10.60
2008,07,24,02,07,10.60
2008,07,24,02,08,10.60
2008,07,24,02,09,10.60
2008,07,24,02,10,10.60
2008,07,24,02,11,10.60
2008,07,24,02,12,10.50
2008,07,24,02,13,10.40
2008,07,24,02,14,10.40
2008,07,24,02,15,10.40
2008,07,24,02,16,10.30
2008,07,24,02,17,10.30
2008,07,24,02,18,10.30
2008,07,24,02,19,10.30
2008,07,24,02,20,10.20
2008,07,24,02,21,10.20
2008,07,24,02,22,10.20
2008,07,24,02,23,10.20
2008,07,24,02,24,10.20
2008,07,24,02,25,10.20
2008,07,24,02,26,10.20
2008,07,24,02,27,10.10
2008,07,24,02,28,10.10
2008,07,24,02,29,10.10
2008,07,24,02,30,10.10
2008,07,24,02,31,10.10
2008,07,24,02,32,10.10
2008,07,24,02,33,10.10
2008,07,24,02,34,10.10
2008,07,24,02,35,10.10
2008,07,24,02,36,10.10
2008,07,24,02,37,10.10
2008,07,24,02,38,10.10
2008,07,24,02,39,10.10
2008,07,24,02,40,10.00
2008,07,24,02,41,9.90
2008,07,24,02,42,9.90
2008,07,24,02,43,9.90
2008,07,24,02,44,9.90
2008,07,24,02,45,9.90
2008,07,24,02,46,9.90
2008,07,24,02,47,9.90
2008,07,24,02,48,9.90
2008,07,24,02,49,9.90
2008,07,24,02,50,9.80
2008,07,24,02,51,9.80
2008,07,24,02,52,9.70
2008,07,24,02,53,9.70
2008,07,24,02,54,9.70
2008,07,24,02,55,9.70
2008,07,24,02,56,9.70
2008,07,24,02,57,9.70
2008,07,24,02,58,9.70
2008,07,24,02,59,9.70
2008,07,24,03,00,9.70
2008,07,24,03,01,9.70
2008,07,24,03,02,9.70
2008,07,24,03,03,9.60
2008,07,24,03,04,9.60
2008,07,24,03,05,9.60
2008,07,24,03,06,9.60
2008,07,24,03,07,9.60
2008,07,24,03,08,9.60
2008,07,24,03,09,9.60
2008,07,24,03,10,9.60
2008,07,24,03,11,9.60
2008,07,24,03,12,9.60
2008,07,24,03,13,9.60
2008,07,24,03,14,9.60
2008,07,24,03,15,9.60
2008,07,24,03,16,9.50
2008,07,24,03,17,9.50
2008,07,24,03,18,9.50
2008,07,24,03,19,9.40
2008,07,24,03,20,9.40
2008,07,24,03,21,9.40
2008,07,24,03,22,9.40
2008,07,24,03,23,9.30
2008,07,24,03,24,9.30
2008,07,24,03,25,9.30
2008,07,24,03,26,9.30
2008,07,24,03,27,9.30
2008,07,24,03,28,9.20
2008,07,24,03,29,9.20
2008,07,24,03,30,9.20
2008,07,24,03,31,9.20
2008,07,24,03,32,9.20
2008,07,24,03,33,9.20
2008,07,24,03,34,9.20
2008,07,24,03,35,9.20
2008,07,24,03,36,9.20
2008,07,24,03,37,9.10
2008,07,24,03,38,9.10
2008,07,24,03,39,9.10
2008,07,24,03,40,9.10
2008,07,24,03,41,9.10
2008,07,24,03,42,9.10
2008,07,24,03,43,9.00
2008,07,24,03,44,9.00
2008,07,24,03,45,9.00
2008,07,24,03,46,9.00
2008,07,24,03,47,9.00
2008,07,24,03,48,9.10
2008,07,24,03,49,9.10
2008,07,24,03,50,9.10
2008,07,24,03,51,9.10
2008,07,24,03,52,9.00
2008,07,24,03,53,9.00
2008,07,24,03,54,9.00
2008,07,24,03,55,9.00
2008,07,24,03,56,9.00
2008,07,24,03,57,9.00
2008,07,24,03,58,8.90
2008,07,24,03,59,8.90
2008,07,24,04,00,8.90
2008,07,24,04,01,8.90
2008,07,24,04,02,8.90
2008,07,24,04,03,8.90
2008,07,24,04,04,8.80
2008,07,24,04,05,8.80
2008,07,24,04,06,8.80
2008,07,24,04,07,8.80
2008,07,24,04,08,8.80
2008,07,24,04,09,8.80
2008,07,24,04,10,8.80
2008,07,24,04,11,8.80
2008,07,24,04,12,8.80
2008,07,24,04,13,8.70
2008,07,24,04,14,8.70
2008,07,24,04,15,8.70
2008,07,24,04,16,8.70
2008,07,24,04,17,8.70
2008,07,24,04,18,8.70
2008,07,24,04,19,8.70
2008,07,24,04,20,8.70
2008,07,24,04,21,8.60
2008,07,24,04,22,8.60
2008,07,24,04,23,8.60
2008,07,24,04,24,8.60
2008,07,24,04,25,8.50
2008,07,24,04,26,8.50
2008,07,24,04,27,8.50
2008,07,24,04,28,8.50
2008,07,24,04,29,8.50
2008,07,24,04,30,8.50
2008,07,24,04,31,8.50
2008,07,24,04,32,8.50
2008,07,24,04,33,8.60
2008,07,24,04,34,8.60
2008,07,24,04,35,8.60
2008,07,24,04,36,8.60
2008,07,24,04,37,8.60
2008,07,24,04,38,8.60
2008,07,24,04,39,8.60
2008,07,24,04,40,8.60
2008,07,24,04,41,8.50
2008,07,24,04,42,8.50
2008,07,24,04,43,8.50
2008,07,24,04,44,8.50
2008,07,24,04,45,8.40
2008,07,24,04,46,8.40
2008,07,24,04,47,8.40
2008,07,24,04,48,8.40
2008,07,24,04,49,8.40
2008,07,24,04,50,8.30
2008,07,24,04,51,8.30
2008,07,24,04,52,8.30
2008,07,24,04,53,8.30
2008,07,24,04,54,8.30
2008,07,24,04,55,8.30
2008,07,24,04,56,8.30
2008,07,24,04,57,8.30
2008,07,24,04,58,8.30
2008,07,24,04,59,8.20
2008,07,24,05,00,8.20
2008,07,24,05,01,8.20
2008,07,24,05,02,8.20
2008,07,24,05,03,8.20
2008,07,24,05,04,8.20
2008,07,24,05,05,8.20
2008,07,24,05,06,8.20
2008,07,24,05,07,8.20
2008,07,24,05,08,8.20
2008,07,24,05,09,8.10
2008,07,24,05,10,8.10
2008,07,24,05,11,8.10
2008,07,24,05,12,8.10
2008,07,24,05,13,8.10
2008,07,24,05,14,8.10
2008,07,24,05,15,8.20
2008,07,24,05,16,8.20
2008,07,24,05,17,8.20
2008,07,24,05,18,8.20
2008,07,24,05,19,8.20
2008,07,24,05,20,8.20
2008,07,24,05,21,8.20
2008,07,24,05,22,8.20
2008,07,24,05,23,8.20
2008,07,24,05,24,8.20
2008,07,24,05,25,8.20
2008,07,24,05,26,8.20
2008,07,24,05,27,8.20
2008,07,24,05,28,8.20
2008,07,24,05,29,8.20
2008,07,24,05,30,8.20
2008,07,24,05,31,8.20
2008,07,24,05,32,8.10
2008,07,24,05,33,8.10
2008,07,24,05,34,8.10
2008,07,24,05,35,8.00
2008,07,24,05,36,8.00
2008,07,24,05,37,8.00
2008,07,24,05,38,8.00
2008,07,24,05,39,8.00
2008,07,24,05,40,8.00
2008,07,24,05,41,8.00
2008,07,24,05,42,8.00
2008,07,24,05,43,8.00
2008,07,24,05,44,8.00
2008,07,24,05,45,8.00
2008,07,24,05,46,8.00
2008,07,24,05,47,8.00
2008,07,24,05,48,8.00
2008,07,24,05,49,8.00
2008,07,24,05,50,8.00
2008,07,24,05,51,8.00
2008,07,24,05,52,8.00
2008,07,24,05,53,8.00
2008,07,24,05,54,7.90
2008,07,24,05,55,7.90
2008,07,24,05,56,7.90
2008,07,24,05,57,7.90
2008,07,24,05,58,7.90
2008,07,24,05,59,7.90
2008,07,24,06,00,8.00
2008,07,24,06,01,8.00
2008,07,24,06,02,8.00
2008,07,24,06,03,8.00
2008,07,24,06,04,8.10
2008,07,24,06,05,8.10
2008,07,24,06,06,8.10
2008,07,24,06,07,8.10
2008,07,24,06,08,8.10
2008,07,24,06,09,8.10
2008,07,24,06,10,8.10
2008,07,24,06,11,8.10
2008,07,24,06,12,8.00
2008,07,24,06,13,8.00
2008,07,24,06,14,8.00
2008,07,24,06,15,8.00
2008,07,24,06,16,8.00
2008,07,24,06,17,8.00
2008,07,24,06,18,8.00
2008,07,24,06,19,8.00
2008,07,24,06,20,8.00
2008,07,24,06,21,8.00
2008,07,24,06,22,8.00
2008,07,24,06,23,8.10
2008,07,24,06,24,8.10
2008,07,24,06,25,8.20
2008,07,24,06,26,8.20
2008,07,24,06,27,8.20
2008,07,24,06,28,8.20
2008,07,24,06,29,8.30
2008,07,24,06,30,8.30
2008,07,24,06,31,8.40
2008,07,24,06,32,8.40
2008,07,24,06,33,8.50
2008,07,24,06,34,8.50
2008,07,24,06,35,8.60
2008,07,24,06,36,8.60
2008,07,24,06,37,8.70
2008,07,24,06,38,8.70
2008,07,24,06,39,8.70
2008,07,24,06,40,8.80
2008,07,24,06,41,8.90
2008,07,24,06,42,9.00
2008,07,24,06,43,9.00
2008,07,24,06,44,9.10
2008,07,24,06,45,9.20
2008,07,24,06,46,9.30
2008,07,24,06,47,9.30
2008,07,24,06,48,9.40
2008,07,24,06,49,9.50
2008,07,24,06,50,9.50
2008,07,24,06,51,9.70
2008,07,24,06,52,9.70
2008,07,24,06,53,9.70
2008,07,24,06,54,9.70
2008,07,24,06,55,9.80
2008,07,24,06,56,9.70
2008,07,24,06,57,9.70
2008,07,24,06,58,9.60
2008,07,24,06,59,9.60
2008,07,24,07,00,9.60
2008,07,24,07,01,9.50
2008,07,24,07,02,9.50
2008,07,24,07,03,9.60
2008,07,24,07,04,9.60
2008,07,24,07,05,9.70
2008,07,24,07,06,9.70
2008,07,24,07,07,9.70
2008,07,24,07,08,9.80
2008,07,24,07,09,9.80
2008,07,24,07,10,9.90
2008,07,24,07,11,9.90
2008,07,24,07,12,10.00
2008,07,24,07,13,10.10
2008,07,24,07,14,10.10
2008,07,24,07,15,10.10
2008,07,24,07,16,10.20
2008,07,24,07,17,10.30
2008,07,24,07,18,10.30
2008,07,24,07,19,10.30
2008,07,24,07,20,10.60
2008,07,24,07,21,10.70
2008,07,24,07,22,10.80
2008,07,24,07,23,10.90
2008,07,24,07,24,11.00
2008,07,24,07,25,11.10
2008,07,24,07,26,11.20
2008,07,24,07,27,11.30
2008,07,24,07,28,11.40
2008,07,24,07,29,11.50
2008,07,24,07,30,11.60
2008,07,24,07,31,11.70
2008,07,24,07,32,11.70
2008,07,24,07,33,11.80
2008,07,24,07,34,11.90
2008,07,24,07,35,12.00
2008,07,24,07,36,12.10
2008,07,24,07,37,12.20
2008,07,24,07,38,12.30
2008,07,24,07,39,12.40
2008,07,24,07,40,12.40
2008,07,24,07,41,12.40
2008,07,24,07,42,12.40
2008,07,24,07,43,12.40
2008,07,24,07,44,12.50
2008,07,24,07,45,12.50
2008,07,24,07,46,12.50
2008,07,24,07,47,12.50
2008,07,24,07,48,12.60
2008,07,24,07,49,12.60
2008,07,24,07,50,12.70
2008,07,24,07,51,12.80
2008,07,24,07,52,12.80
2008,07,24,07,53,12.80
2008,07,24,07,54,12.80
2008,07,24,07,55,12.80
2008,07,24,07,56,12.80
2008,07,24,07,57,12.90
2008,07,24,07,58,12.90
2008,07,24,07,59,12.90
2008,07,24,08,00,13.00
2008,07,24,08,01,13.10
2008,07,24,08,02,13.10
2008,07,24,08,03,13.20
2008,07,24,08,04,13.30
2008,07,24,08,05,13.30
2008,07,24,08,06,13.30
2008,07,24,08,07,13.40
2008,07,24,08,08,13.50
2008,07,24,08,09,13.60
2008,07,24,08,10,13.60
2008,07,24,08,11,13.60
2008,07,24,08,12,13.60
2008,07,24,08,13,13.70
2008,07,24,08,14,13.80
2008,07,24,08,15,13.90
2008,07,24,08,16,13.90
2008,07,24,08,17,14.00
2008,07,24,08,18,14.00
2008,07,24,08,19,14.00
2008,07,24,08,20,14.00
2008,07,24,08,21,14.10
2008,07,24,08,22,14.10
2008,07,24,08,23,14.10
2008,07,24,08,24,14.10
2008,07,24,08,25,14.10
2008,07,24,08,26,14.10
2008,07,24,08,27,14.20
2008,07,24,08,28,14.20
2008,07,24,08,29,14.30
2008,07,24,08,30,14.40
2008,07,24,08,31,14.50
2008,07,24,08,32,14.50
2008,07,24,08,33,14.60
2008,07,24,08,34,14.70
2008,07,24,08,35,14.80
2008,07,24,08,36,14.80
2008,07,24,08,37,14.90
2008,07,24,08,38,15.00
2008,07,24,08,39,15.10
2008,07,24,08,40,15.20
2008,07,24,08,41,15.30
2008,07,24,08,42,15.30
2008,07,24,08,43,15.30
2008,07,24,08,44,15.30
2008,07,24,08,45,15.30
2008,07,24,08,46,15.30
2008,07,24,08,47,15.30
2008,07,24,08,48,15.30
2008,07,24,08,49,15.30
2008,07,24,08,50,15.30
2008,07,24,08,51,15.30
2008,07,24,08,52,15.30
2008,07,24,08,53,15.40
2008,07,24,08,54,15.40
2008,07,24,08,55,15.40
2008,07,24,08,56,15.30
2008,07,24,08,57,15.30
2008,07,24,08,58,15.40
2008,07,24,08,59,15.40
2008,07,24,09,00,15.40
2008,07,24,09,01,15.50
2008,07,24,09,02,15.60
2008,07,24,09,03,15.60
2008,07,24,09,04,15.50
2008,07,24,09,05,15.50
2008,07,24,09,06,15.50
2008,07,24,09,07,15.60
2008,07,24,09,08,15.70
2008,07,24,09,09,15.70
2008,07,24,09,10,15.80
2008,07,24,09,11,15.80
2008,07,24,09,12,15.70
2008,07,24,09,13,15.70
2008,07,24,09,14,15.70
2008,07,24,09,15,15.80
2008,07,24,09,16,15.80
2008,07,24,09,17,15.80
2008,07,24,09,18,15.80
2008,07,24,09,19,15.80
2008,07,24,09,20,15.80
2008,07,24,09,21,15.90
2008,07,24,09,22,15.90
2008,07,24,09,23,15.90
2008,07,24,09,24,15.90
2008,07,24,09,25,15.90
2008,07,24,09,26,15.90
2008,07,24,09,27,16.00
2008,07,24,09,28,16.20
2008,07,24,09,29,16.30
2008,07,24,09,30,16.40
2008,07,24,09,31,16.50
2008,07,24,09,32,16.60
2008,07,24,09,33,16.70
2008,07,24,09,34,16.60
2008,07,24,09,35,16.60
2008,07,24,09,36,16.60
2008,07,24,09,37,16.70
2008,07,24,09,38,16.70
2008,07,24,09,39,16.70
2008,07,24,09,40,16.70
2008,07,24,09,41,16.70
2008,07,24,09,42,16.70
2008,07,24,09,43,16.80
2008,07,24,09,44,16.90
2008,07,24,09,45,17.00
2008,07,24,09,46,17.00
2008,07,24,09,47,17.00
2008,07,24,09,48,17.00
2008,07,24,09,49,16.90
2008,07,24,09,50,16.80
2008,07,24,09,51,16.90
2008,07,24,09,52,16.90
2008,07,24,09,53,16.90
2008,07,24,09,54,16.90
2008,07,24,09,55,16.80
2008,07,24,09,56,16.70
2008,07,24,09,57,16.70
2008,07,24,09,58,16.50
2008,07,24,09,59,16.40
2008,07,24,10,00,16.30
2008,07,24,10,01,16.20
2008,07,24,10,02,16.10
2008,07,24,10,03,16.10
2008,07,24,10,04,16.10
2008,07,24,10,05,16.10
2008,07,24,10,06,16.10
2008,07,24,10,07,16.20
2008,07,24,10,08,16.30
2008,07,24,10,09,16.30
2008,07,24,10,10,16.40
2008,07,24,10,11,16.40
2008,07,24,10,12,16.40
2008,07,24,10,13,16.40
2008,07,24,10,14,16.40
2008,07,24,10,15,16.60
2008,07,24,10,16,16.60
2008,07,24,10,17,16.70
2008,07,24,10,18,16.70
2008,07,24,10,19,16.70
2008,07,24,10,20,16.80
2008,07,24,10,21,16.90
2008,07,24,10,22,16.90
2008,07,24,10,23,16.80
2008,07,24,10,24,16.70
2008,07,24,10,25,16.80
2008,07,24,10,26,16.80
2008,07,24,10,27,16.80
2008,07,24,10,28,16.90
2008,07,24,10,29,17.00
2008,07,24,10,30,17.00
2008,07,24,10,31,17.00
2008,07,24,10,32,17.00
2008,07,24,10,33,17.00
2008,07,24,10,34,17.10
2008,07,24,10,35,17.00
2008,07,24,10,36,17.10
2008,07,24,10,37,17.00
2008,07,24,10,38,17.10
2008,07,24,10,39,17.10
2008,07,24,10,40,17.10
2008,07,24,10,41,17.10
2008,07,24,10,42,17.10
2008,07,24,10,43,17.20
2008,07,24,10,44,17.40
2008,07,24,10,45,17.60
2008,07,24,10,46,17.80
2008,07,24,10,47,18.00
2008,07,24,10,48,18.20
2008,07,24,10,49,18.30
2008,07,24,10,50,18.30
2008,07,24,10,51,18.40
2008,07,24,10,52,18.50
2008,07,24,10,53,18.60
2008,07,24,10,54,18.80
2008,07,24,10,55,18.80
2008,07,24,10,56,18.70
2008,07,24,10,57,18.60
2008,07,24,10,58,18.60
2008,07,24,10,59,18.60
2008,07,24,11,00,18.60
2008,07,24,11,01,18.70
2008,07,24,11,02,18.70
2008,07,24,11,03,18.70
2008,07,24,11,04,18.70
2008,07,24,11,05,18.80
2008,07,24,11,06,18.70
2008,07,24,11,07,18.80
2008,07,24,11,08,18.70
2008,07,24,11,09,18.80
2008,07,24,11,10,18.90
2008,07,24,11,11,19.10
2008,07,24,11,12,19.10
2008,07,24,11,13,19.10
2008,07,24,11,14,19.10
2008,07,24,11,15,19.00
2008,07,24,11,16,18.90
2008,07,24,11,17,18.90
2008,07,24,11,18,18.90
2008,07,24,11,19,19.00
2008,07,24,11,20,19.00
2008,07,24,11,21,18.90
2008,07,24,11,22,18.90
2008,07,24,11,23,18.90
2008,07,24,11,24,18.90
2008,07,24,11,25,18.90
2008,07,24,11,26,18.90
2008,07,24,11,27,18.90
2008,07,24,11,28,18.90
2008,07,24,11,29,18.90
2008,07,24,11,30,19.10
2008,07,24,11,31,19.20
2008,07,24,11,32,19.30
2008,07,24,11,33,19.40
2008,07,24,11,34,19.60
2008,07,24,11,35,19.80
2008,07,24,11,36,19.90
2008,07,24,11,37,19.90
2008,07,24,11,38,19.90
2008,07,24,11,39,19.90
2008,07,24,11,40,20.10
2008,07,24,11,41,20.10
2008,07,24,11,42,20.20
2008,07,24,11,43,20.20
2008,07,24,11,44,20.20
2008,07,24,11,45,20.40
2008,07,24,11,46,20.40
2008,07,24,11,47,20.60
2008,07,24,11,48,20.60
2008,07,24,11,49,20.50
2008,07,24,11,50,20.40
2008,07,24,11,51,20.30
2008,07,24,11,52,20.20
2008,07,24,11,53,20.20
2008,07,24,11,54,20.20
2008,07,24,11,55,20.20
2008,07,24,11,56,20.20
2008,07,24,11,57,19.90
2008,07,24,11,58,19.80
2008,07,24,11,59,19.70
2008,07,24,12,00,19.70
2008,07,24,12,01,19.70
2008,07,24,12,02,19.60
2008,07,24,12,03,19.60
2008,07,24,12,04,19.60
2008,07,24,12,05,19.70
2008,07,24,12,06,19.70
2008,07,24,12,07,19.70
2008,07,24,12,08,19.60
2008,07,24,12,09,19.60
2008,07,24,12,10,19.80
2008,07,24,12,11,19.90
2008,07,24,12,12,20.00
2008,07,24,12,13,20.20
2008,07,24,12,14,20.20
2008,07,24,12,15,20.20
2008,07,24,12,16,20.20
2008,07,24,12,17,20.20
2008,07,24,12,18,20.20
2008,07,24,12,19,20.20
2008,07,24,12,20,20.20
2008,07,24,12,21,20.30
2008,07,24,12,22,20.30
2008,07,24,12,23,20.30
2008,07,24,12,24,20.20
2008,07,24,12,25,20.20
2008,07,24,12,26,20.20
2008,07,24,12,27,20.40
2008,07,24,12,28,20.60
2008,07,24,12,29,20.70
2008,07,24,12,30,20.80
2008,07,24,12,31,20.90
2008,07,24,12,32,21.00
2008,07,24,12,33,21.00
2008,07,24,12,34,20.90
2008,07,24,12,35,20.80
2008,07,24,12,36,20.90
2008,07,24,12,37,20.90
2008,07,24,12,38,20.80
2008,07,24,12,39,20.70
2008,07,24,12,40,20.60
2008,07,24,12,41,20.60
2008,07,24,12,42,20.60
2008,07,24,12,43,20.70
2008,07,24,12,44,20.80
2008,07,24,12,45,21.00
2008,07,24,12,46,21.20
2008,07,24,12,47,21.30
2008,07,24,12,48,21.30
2008,07,24,12,49,21.30
2008,07,24,12,50,21.20
2008,07,24,12,51,21.20
2008,07,24,12,52,21.20
2008,07,24,12,53,21.30
2008,07,24,12,54,21.30
2008,07,24,12,55,21.40
2008,07,24,12,56,21.30
2008,07,24,12,57,21.30
2008,07,24,12,58,21.30
2008,07,24,12,59,21.30
2008,07,24,13,00,21.30
2008,07,24,13,01,21.50
2008,07,24,13,02,21.60
2008,07,24,13,03,21.60
2008,07,24,13,04,21.50
2008,07,24,13,05,21.40
2008,07,24,13,06,21.30
2008,07,24,13,07,21.30
2008,07,24,13,08,21.30
2008,07,24,13,09,21.30
2008,07,24,13,10,21.30
2008,07,24,13,11,21.40
2008,07,24,13,12,21.40
2008,07,24,13,13,21.60
2008,07,24,13,14,21.60
2008,07,24,13,15,21.60
2008,07,24,13,16,21.40
2008,07,24,13,17,21.40
2008,07,24,13,18,21.60
2008,07,24,13,19,21.60
2008,07,24,13,20,21.60
2008,07,24,13,21,21.60
2008,07,24,13,22,21.60
2008,07,24,13,23,21.40
2008,07,24,13,24,21.40
2008,07,24,13,25,21.40
2008,07,24,13,26,21.40
2008,07,24,13,27,21.60
2008,07,24,13,28,21.60
2008,07,24,13,29,21.70
2008,07,24,13,30,21.70
2008,07,24,13,31,21.80
2008,07,24,13,32,21.90
2008,07,24,13,33,22.00
2008,07,24,13,34,22.10
2008,07,24,13,35,22.20
2008,07,24,13,36,22.20
2008,07,24,13,37,22.20
2008,07,24,13,38,22.10
2008,07,24,13,39,22.20
2008,07,24,13,40,22.10
2008,07,24,13,41,22.20
2008,07,24,13,42,22.20
2008,07,24,13,43,22.30
2008,07,24,13,44,22.20
2008,07,24,13,45,22.20
2008,07,24,13,46,22.10
2008,07,24,13,47,22.10
2008,07,24,13,48,22.10
2008,07,24,13,49,22.20
2008,07,24,13,50,22.00
2008,07,24,13,51,21.80
2008,07,24,13,52,21.60
2008,07,24,13,53,21.60
2008,07,24,13,54,21.70
2008,07,24,13,55,21.70
2008,07,24,13,56,21.80
2008,07,24,13,57,21.80
2008,07,24,13,58,21.80
2008,07,24,13,59,21.90
2008,07,24,14,00,22.00
2008,07,24,14,01,22.10
2008,07,24,14,02,22.10
2008,07,24,14,03,22.00
2008,07,24,14,04,22.00
2008,07,24,14,05,22.00
2008,07,24,14,06,21.90
2008,07,24,14,07,21.90
2008,07,24,14,08,21.90
2008,07,24,14,09,22.00
2008,07,24,14,10,22.10
2008,07,24,14,11,22.10
2008,07,24,14,12,22.10
2008,07,24,14,13,22.10
2008,07,24,14,14,22.10
2008,07,24,14,15,21.90
2008,07,24,14,16,21.90
2008,07,24,14,17,22.00
2008,07,24,14,18,22.00
2008,07,24,14,19,22.10
2008,07,24,14,20,22.20
2008,07,24,14,21,22.40
2008,07,24,14,22,22.60
2008,07,24,14,23,22.70
2008,07,24,14,24,22.80
2008,07,24,14,25,22.80
2008,07,24,14,26,22.70
2008,07,24,14,27,22.60
2008,07,24,14,28,22.60
2008,07,24,14,29,22.60
2008,07,24,14,30,22.60
2008,07,24,14,31,22.60
2008,07,24,14,32,22.70
2008,07,24,14,33,22.70
2008,07,24,14,34,22.70
2008,07,24,14,35,22.70
2008,07,24,14,36,22.70
2008,07,24,14,37,22.70
2008,07,24,14,38,22.60
2008,07,24,14,39,22.50
2008,07,24,14,40,22.50
2008,07,24,14,41,22.50
2008,07,24,14,42,22.60
2008,07,24,14,43,22.70
2008,07,24,14,44,22.70
2008,07,24,14,45,22.60
2008,07,24,14,46,22.60
2008,07,24,14,47,22.60
2008,07,24,14,48,22.60
2008,07,24,14,49,22.50
2008,07,24,14,50,22.40
2008,07,24,14,51,22.40
2008,07,24,14,52,22.40
2008,07,24,14,53,22.40
2008,07,24,14,54,22.40
2008,07,24,14,55,22.40
2008,07,24,14,56,22.40
2008,07,24,14,57,22.50
2008,07,24,14,58,22.60
2008,07,24,14,59,22.70
2008,07,24,15,00,22.70
2008,07,24,15,01,22.60
2008,07,24,15,02,22.40
2008,07,24,15,03,22.30
2008,07,24,15,04,22.20
2008,07,24,15,05,22.20
2008,07,24,15,06,22.10
2008,07,24,15,07,22.00
2008,07,24,15,08,22.00
2008,07,24,15,09,21.90
2008,07,24,15,10,21.80
2008,07,24,15,11,21.60
2008,07,24,15,12,21.60
2008,07,24,15,13,21.60
2008,07,24,15,14,21.60
2008,07,24,15,15,21.60
2008,07,24,15,16,21.60
2008,07,24,15,17,21.60
2008,07,24,15,18,21.70
2008,07,24,15,19,21.80
2008,07,24,15,20,21.80
2008,07,24,15,21,21.60
2008,07,24,15,22,21.40
2008,07,24,15,23,21.40
2008,07,24,15,24,21.30
2008,07,24,15,25,21.10
2008,07,24,15,26,21.10
2008,07,24,15,27,21.10
2008,07,24,15,28,21.10
2008,07,24,15,29,21.10
2008,07,24,15,30,21.10
2008,07,24,15,31,21.20
2008,07,24,15,32,21.00
2008,07,24,15,33,20.80
2008,07,24,15,34,20.80
2008,07,24,15,35,20.80
2008,07,24,15,36,20.70
2008,07,24,15,37,20.60
2008,07,24,15,38,20.60
2008,07,24,15,39,20.50
2008,07,24,15,40,20.50
2008,07,24,15,41,20.80
2008,07,24,15,42,20.80
2008,07,24,15,43,20.90
2008,07,24,15,44,20.80
2008,07,24,15,45,20.70
2008,07,24,15,46,20.70
2008,07,24,15,47,20.70
2008,07,24,15,48,20.80
2008,07,24,15,49,20.90
2008,07,24,15,50,20.90
2008,07,24,15,51,20.90
2008,07,24,15,52,20.80
2008,07,24,15,53,20.70
2008,07,24,15,54,20.70
2008,07,24,15,55,20.80
2008,07,24,15,56,20.80
2008,07,24,15,57,20.80
2008,07,24,15,58,21.00
2008,07,24,15,59,20.90
2008,07,24,16,00,20.90
2008,07,24,16,01,20.80
2008,07,24,16,02,20.80
2008,07,24,16,03,20.70
2008,07,24,16,04,20.60
2008,07,24,16,05,20.70
2008,07,24,16,06,20.60
2008,07,24,16,07,20.60
2008,07,24,16,08,20.50
2008,07,24,16,09,20.50
2008,07,24,16,10,20.50
2008,07,24,16,11,20.60
2008,07,24,16,12,20.70
2008,07,24,16,13,20.90
2008,07,24,16,14,21.00
2008,07,24,16,15,21.10
2008,07,24,16,16,21.00
2008,07,24,16,17,21.00
2008,07,24,16,18,21.00
2008,07,24,16,19,21.10
2008,07,24,16,20,21.20
2008,07,24,16,21,21.20
2008,07,24,16,22,21.20
2008,07,24,16,23,21.20
2008,07,24,16,24,21.20
2008,07,24,16,25,21.20
2008,07,24,16,26,21.10
2008,07,24,16,27,21.00
2008,07,24,16,28,20.80
2008,07,24,16,29,20.70
2008,07,24,16,30,20.70
2008,07,24,16,31,20.60
2008,07,24,16,32,20.50
2008,07,24,16,33,20.50
2008,07,24,16,34,20.70
2008,07,24,16,35,20.80
2008,07,24,16,36,20.90
2008,07,24,16,37,21.00
2008,07,24,16,38,21.10
2008,07,24,16,39,21.10
2008,07,24,16,40,21.20
2008,07,24,16,41,21.20
2008,07,24,16,42,21.30
2008,07,24,16,43,21.30
2008,07,24,16,44,21.30
2008,07,24,16,45,21.30
2008,07,24,16,46,21.30
2008,07,24,16,47,21.30
2008,07,24,16,48,21.30
2008,07,24,16,49,21.30
2008,07,24,16,50,21.30
2008,07,24,16,51,21.20
2008,07,24,16,52,21.20
2008,07,24,16,53,21.20
2008,07,24,16,54,21.20
2008,07,24,16,55,21.20
2008,07,24,16,56,21.20
2008,07,24,16,57,21.20
2008,07,24,16,58,21.10
2008,07,24,16,59,21.00
2008,07,24,17,00,20.90
2008,07,24,17,01,20.80
2008,07,24,17,02,20.80
2008,07,24,17,03,20.80
2008,07,24,17,04,20.70
2008,07,24,17,05,20.60
2008,07,24,17,06,20.60
2008,07,24,17,07,20.50
2008,07,24,17,08,20.50
2008,07,24,17,09,20.60
2008,07,24,17,10,20.50
2008,07,24,17,11,20.60
2008,07,24,17,12,20.60
2008,07,24,17,13,20.50
2008,07,24,17,14,20.60
2008,07,24,17,15,20.60
2008,07,24,17,16,20.50
2008,07,24,17,17,20.50
2008,07,24,17,18,20.50
2008,07,24,17,19,20.50
2008,07,24,17,20,20.40
2008,07,24,17,21,20.30
2008,07,24,17,22,20.30
2008,07,24,17,23,20.20
2008,07,24,17,24,20.20
2008,07,24,17,25,20.20
2008,07,24,17,26,20.20
2008,07,24,17,27,20.20
2008,07,24,17,28,20.20
2008,07,24,17,29,20.20
2008,07,24,17,30,20.20
2008,07,24,17,31,20.20